Location: Newark
(40.3500°N, 15.2333°E)
Time: 00:13:12
(UTC+00:00)

S-56A Canister/Altair - All Passes

Search period start: 27 January 2020 00:00
Search period end: 06 February 2020 00:00
Orbit: 634 x 2498 km, 38.9° (Epoch: 26 January)

Date Brightness Start Highest point End Pass type
(mag) Time Alt. Az. Time Alt. Az. Time Alt. Az.
27 Jan - 00:21:22 10° WSW 00:24:35 19° SSW 00:27:59 10° SSE night (unlit)
27 Jan - 15:33:16 10° S 15:37:22 13° SE 15:40:54 10° ESE daylight
27 Jan - 17:33:54 10° SW 17:41:33 37° SSE 17:46:55 10° E visible
27 Jan - 19:38:45 10° WSW 19:45:24 71° S 19:50:13 10° E visible
27 Jan - 21:43:51 10° W 21:49:00 65° SSW 21:53:23 10° ESE night (unlit)
27 Jan - 23:48:34 10° W 23:52:05 22° SSW 23:55:40 10° SSE night (unlit)
28 Jan - 15:00:57 10° SSE 15:04:29 12° SE 15:07:38 10° ESE daylight
28 Jan - 17:00:42 10° SW 17:08:47 35° SSE 17:14:27 10° E visible
28 Jan - 19:05:32 10° WSW 19:12:47 69° S 19:17:49 10° E visible
28 Jan - 21:10:55 10° W 21:16:28 70° S 21:20:56 10° ESE visible
28 Jan - 23:15:46 10° W 23:19:36 26° SSW 23:23:21 10° SSE night (unlit)
29 Jan - 14:29:00 10° SSE 14:31:34 11° SE 14:33:57 10° SE daylight
29 Jan - 16:27:29 10° SSW 16:35:58 34° SSE 16:41:58 10° E visible
29 Jan - 18:32:14 10° WSW 18:40:06 66° SSE 18:45:26 10° E visible
29 Jan - 20:37:53 10° W 20:43:55 74° S 20:48:31 10° ESE visible
29 Jan - 22:42:54 10° W 22:47:08 31° SSW 22:51:03 10° SE night (unlit)
30 Jan - 15:54:15 10° SSW 16:03:06 32° SSE 16:09:25 10° E daylight
30 Jan - 17:58:51 10° WSW 18:07:23 64° SSE 18:13:04 10° E visible
30 Jan - 20:04:44 10° W 20:11:20 77° S 20:16:08 10° E visible
30 Jan - 22:09:59 10° W 22:14:40 36° SSW 22:18:44 10° SE night (unlit)
31 Jan - 15:21:01 10° SSW 15:30:10 30° SSE 15:36:48 10° E daylight
31 Jan - 17:25:24 10° WSW 17:34:37 61° SSE 17:40:40 10° E visible
31 Jan - 19:31:29 10° W 19:38:42 79° S 19:43:45 10° E visible
31 Jan - 21:37:00 10° W 21:42:11 42° SSW 21:46:26 10° SE night (unlit)
01 Feb - 14:47:50 10° SSW 14:57:12 28° SSE 15:04:08 10° E daylight
01 Feb - 16:51:55 10° WSW 17:01:46 58° SSE 17:08:15 10° E visible
01 Feb - 18:58:08 10° W 19:06:02 80° S 19:11:22 10° E visible
01 Feb - 21:03:56 10° W 21:09:41 49° SSW 21:14:08 10° SE visible
01 Feb - 23:10:51 10° WSW 23:12:21 11° SW 23:13:48 10° SSW night (unlit)
02 Feb - 14:14:41 10° SSW 14:24:11 27° SSE 14:31:22 10° E daylight
02 Feb - 16:18:23 10° SW 16:28:53 56° SSE 16:35:48 10° E daylight
02 Feb - 18:24:41 10° W 18:33:19 80° S 18:39:00 10° E visible
02 Feb - 20:30:47 10° W 20:37:08 56° SSW 20:41:49 10° ESE visible
02 Feb - 22:37:09 10° WSW 22:39:53 15° SW 22:42:25 10° S night (unlit)
03 Feb - 13:41:37 10° SSW 13:51:06 25° SE 13:58:30 10° E daylight
03 Feb - 15:44:50 10° SW 15:55:56 53° SSE 16:03:19 10° E daylight
03 Feb - 17:51:09 10° W 18:00:31 79° S 18:06:36 10° E visible
03 Feb - 19:57:33 10° W 20:04:33 63° SSW 20:09:31 10° ESE visible
03 Feb - 22:03:46 10° W 22:07:26 19° SW 22:10:39 10° S night (unlit)
04 Feb - 13:08:39 10° S 13:18:00 23° SE 13:25:30 10° E daylight
04 Feb - 15:11:17 10° SW 15:22:54 51° SSE 15:30:46 10° E daylight
04 Feb - 17:17:32 10° WSW 17:27:41 78° S 17:34:11 10° E visible
04 Feb - 19:24:11 10° W 19:31:56 68° SSW 19:37:11 10° ESE visible
04 Feb - 21:30:26 10° W 21:34:59 23° SW 21:38:44 10° SSE visible
05 Feb - 12:35:50 10° S 12:44:52 21° SE 12:52:21 10° E daylight
05 Feb - 14:37:46 10° SW 14:49:49 48° SSE 14:58:10 10° E daylight
05 Feb - 16:43:51 10° WSW 16:54:46 77° S 17:01:46 10° E visible
05 Feb - 18:50:45 10° W 18:59:14 73° SSW 19:04:51 10° ESE visible
05 Feb - 20:57:07 10° W 21:02:30 29° SW 21:06:43 10° SSE visible
